Coffeyville, KS

10:18 AM CST on December 16, 2017 (GMT -0600)
Coffeyville Municipal

Weather History for KCFV - March, 2013

Change the Weather History Date:

Friday, March 8, 2013

  Actual Average Record
Temperature  
Mean Temperature 53 °F -  
Max Temperature 63 °F 50 °F 77 °F (2004)
Min Temperature 43 °F 29 °F 15 °F (2008)
Degree Days  
Heating Degree Days 12    
Growing Degree Days 3 (Base 50)    
Moisture  
Dew Point 38 °F    
Average Humidity 54    
Maximum Humidity 72    
Minimum Humidity 45    
Precipitation  
Precipitation 0.00 in - - ()
Sea Level Pressure  
Sea Level Pressure 30.10 in    
Wind  
Wind Speed 12 mph (SSE)    
Max Wind Speed 21 mph    
Max Gust Speed 29 mph    
Visibility 9 miles    
Events      
Averages and records for this station are not official NWS values.
T = Trace of Precipitation, MM = Missing Value Source: NWS Daily Summary

Daily Weather History Graph

Daily Weather History Graph

Search for Another Location

Airport or City:

Trip Planner

Search our weather history database for the weather conditions in past years. The results will help you decide how hot, cold, wet, or windy it might be!

Date:

Astronomy

Mar. 08, 2013 Rise Set
Actual Time 6:43 AM CST 6:23 PM CST
Civil Twilight 6:17 AM CST 6:49 PM CST
Nautical Twilight 5:47 AM CST 7:19 PM CST
Astronomical Twilight 5:16 AM CST 7:49 PM CST
Moon 4:24 AM CST (3/8) 3:22 PM CST (3/8)
Length of Visible Light 12h 32m
Length of Day
11h 40m
Waning Crescent, 11% of the Moon is Illuminated
Mar 8
Waning Crescent
Mar 11
New
Mar 19
First Quarter
Mar 27
Full
Apr 2
Last Quarter

Hourly Weather History & Observations

Time (CST) Temp. Windchill Dew Point Humidity Pressure Visibility Wind Dir Wind Speed Gust Speed Precip Events Conditions
12:52 AM 43.0 °F 38.8 °F 30.9 °F 62% 30.16 in 10.0 mi ESE 6.9 mph - N/A   Clear
1:52 AM 46.0 °F 41.4 °F 32.0 °F 58% 30.16 in 6.0 mi ESE 9.2 mph - N/A   Haze
2:52 AM 46.9 °F - 32.0 °F 56% 30.16 in 7.0 mi ESE 10.4 mph - N/A   Clear
4:52 AM 48.0 °F - 32.0 °F 54% 30.17 in 10.0 mi SE 11.5 mph - N/A   Clear
5:52 AM 48.0 °F - 32.0 °F 54% 30.16 in 10.0 mi SE 15.0 mph - N/A   Clear
6:52 AM 48.0 °F - 32.0 °F 54% 30.17 in 10.0 mi SE 11.5 mph - N/A   Clear
7:52 AM 48.9 °F - 33.1 °F 54% 30.17 in 10.0 mi SSE 8.1 mph - N/A   Clear
8:52 AM 53.1 °F - 34.0 °F 48% 30.18 in 10.0 mi SSE 16.1 mph 23.0 mph N/A   Clear
9:52 AM 55.9 °F - 36.0 °F 47% 30.17 in 10.0 mi SSE 13.8 mph 24.2 mph N/A   Clear
10:52 AM 60.1 °F - 39.0 °F 46% 30.16 in 10.0 mi South 18.4 mph - N/A   Clear
11:22 AM 62.6 °F - 41.0 °F 45% 30.15 in 10.0 mi South 15.0 mph 25.3 mph N/A   Mostly Cloudy
11:52 AM 62.1 °F - 43.0 °F 50% 30.14 in 10.0 mi South 15.0 mph - N/A   Overcast
12:52 PM 63.0 °F - 44.1 °F 50% 30.12 in 10.0 mi South 18.4 mph 28.8 mph N/A   Overcast
1:52 PM 57.0 °F - 46.0 °F 67% 30.10 in 10.0 mi SSE 19.6 mph 28.8 mph N/A   Overcast
2:52 PM 55.9 °F - 46.9 °F 72% 30.07 in 10.0 mi South 18.4 mph 25.3 mph N/A   Overcast
3:52 PM 57.0 °F - 46.0 °F 67% 30.07 in 10.0 mi South 20.7 mph 27.6 mph N/A   Overcast
4:52 PM 57.9 °F - 43.0 °F 58% 30.06 in 10.0 mi South 16.1 mph 19.6 mph N/A   Overcast
5:18 PM 57.2 °F - 41.0 °F 55% 30.04 in 10.0 mi SE 10.4 mph - N/A   Overcast
5:52 PM 57.0 °F - 39.0 °F 51% 30.04 in 10.0 mi SE 9.2 mph - N/A   Overcast
6:52 PM 57.0 °F - 37.0 °F 47% 30.04 in 10.0 mi SSE 10.4 mph - N/A   Overcast
7:52 PM 55.9 °F - 37.9 °F 51% 30.04 in 10.0 mi SE 4.6 mph - N/A   Overcast
8:52 PM 57.0 °F - 37.9 °F 49% 30.04 in 10.0 mi SSE 10.4 mph - N/A   Overcast
9:52 PM 57.0 °F - 37.9 °F 49% 30.02 in 9.0 mi SSE 10.4 mph - N/A   Overcast
10:52 PM 57.9 °F - 39.0 °F 49% 30.00 in 6.0 mi South 12.7 mph - N/A   Haze
11:52 PM 59.0 °F - 39.0 °F 48% 29.97 in 7.0 mi South 17.3 mph 28.8 mph N/A   Overcast